Погода в Буге

Колумбия     3°54′37″N   76°18′18″W
темп.,
°C
ветер,
м/с
пор.,
м/с
влажн.,
%
обл.,
%
осадки,
мм/ч
давл.,
гПа
погр.,
м
19 апреля, пн
пн1901:00+17ссв2399100 15.8 1015152
04:00+16св1299100 0.9 1015106
07:00+17с1196100 0.9 1016127
10:00+20всв1082100 0.2 1016572
13:00+25ссз015914 0.6 10121153
16:00+25св015953 1.4 1009923
19:00+19ююз118897 4.6 101228
22:00+18ююз249290 2.8 1016121
20 апреля, вт
вт2001:00+17юз249291 3.8 101484
04:00+17ююз129197 1.3 101444
07:00+17св1193100 1.9 101670
10:00+19с1186100 0.6 1016314
13:00+23св2167100 0.8 1012720
16:00+22ссв127682 0.8 1011362
19:00+18св118893 1.4 101325
22:00+17в018994 0.4 101618
21 апреля, ср
ср2101:00+16ю1189100 0.5 101516
04:00+16всв0191100 0.0 101412
07:00+17св008692 0.1 101659
10:00+19св1181100 0.3 1017414
13:00+24ссв1161100 0.5 10121134
16:00+23ссв116880 1.9 1010908
19:00+18юв118973 6.7 101319
22:00+17ю239451 2.8 101669
22 апреля, чт
чт2201:00+16ююз249663 4.3 1015137
04:00+16ююз2394100 0.4 101491
07:00+17юз019278 0.5 101665
10:00+21ссв227555 0.1 1015590
13:00+25ссв225641 0.3 10111219
16:00+24ссв226728 1.4 1009939
19:00+18ю119074 5.0 101331
22:00+17ююз249558 1.0 101590
23 апреля, пт
пт2301:00+16ююз129545 1.1 101440
04:00+16юв019471 0.1 101412
07:00+17в119045 0.1 101677
10:00+22ссв117025 0.0 1015663
13:00+26с015643 0.5 10101129
16:00+26зсз115959 1.6 10071120
19:00+19в0187100 5.4 101123
22:00+18ю019292 2.9 101421